Lid_Strength_Index
2 1 1 1 1 1 1 1 1 1 1 1 1 2 1 2 2 2 2 3 3 3
3 2 2 1 1 1 1 1 1 1 1 1 1 2 2 2 2 2 2 2 2 3
5 3 1 1 1 1 1 2 2 2 2 1 1 2 2 2 1 2 1 1 2 2
5 4 3 2 1 1 1 2 2 2 2 2 2 1 2 2 2 1 1 1 1 2
5 4 3 3 2 1 2 2 2 2 2 2 2 2 2 2 2 2 2 2 2 2
6 5 3 2 2 2 2 3 2 2 2 1 2 2 2 2 2 2 2 2 2 3
7 6 4 2 2 3 3 2 2 2 1 2 2 2 2 2 2 2 2 2 2 2
7 6 6 6 5 4 5 5 5 4 4 4 3 3 3 2 2 2 3 4 3 3
9 9 7 7 8 8 7 6 6 6 7 6 6 10 10 9 5 5 5 4 5 9
12 12 11 10 10 9 9 8 8 8 8 8 8 9 9 9 8 7 6 7 10 12
12 12 12 12 11 11 9 10 10 9 9 9 10 9 9 10 8 9 10 10 10 11
13 13 12 12 11 10 10 10 11 11 12 12 11 9 9 10 11 12 12 12 11 11
14 14 13 11 11 10 11 11 12 13 13 13 13 11 10 10 13 13 13 13 13 13
15 14 13 11 11 11 11 13 12 12 13 13 13 12 10 9 12 13 13 13 14 13